Regional Weather Roundup
Issued by NWS

Home | Current Version | Previous Version | Text Only | Print | Product List | Glossary Off
Versions: 1 2 3 4 5 6 7 8 9 10 11 12 13 14 15 16 17 18 19 20 21 22 23 24 25 26 27 28 29 30 31 32 33 34 35 36 37 38 39 40 41 42 43 44 45 46 47 48 49 50

000
ASUS43 KMPX 012201
RWRMN
WEATHER ROUNDUP FOR MINNESOTA
NATIONAL WEATHER SERVICE TWIN CITIES/CHANHASSEN MN
400 PM CST SUN MAR 01 2015


NOTE: "FAIR" INDICATES FEW OR NO CLOUDS BELOW 12,000 FEET WITH NO
SIGNIFICANT WEATHER AND/OR OBSTRUCTIONS TO VISIBILITY. N/A MEANS
CURRENT SKY AND/OR WEATHER CONDITIONS ARE NOT AVAILABLE.

MNZ060>063-068>070-012300-
   Twin Cities Metro

CITY           SKY/WX    TMP DP  RH WIND       PRES   REMARKS
TWIN CITIES    PTSUNNY   28   9  44 W18G26    30.24R WCI  15
ST PAUL        PTSUNNY   27   9  46 W17G23    30.25R WCI  14
CRYSTAL        CLOUDY    28  11  48 W15       30.22S WCI  16
BLAINE         PTSUNNY   28  12  50 W12G20    30.22R WCI  18
LAKEVILLE      PTSUNNY   25  12  58 W13       30.24S WCI  13
EDEN PRAIRIE   PTSUNNY   27  10  49 W20       30.23S WCI  13
SOUTH ST PAUL  MOSUNNY   28  10  46 W14       30.24S WCI  17
LAKE ELMO      FAIR      28  12  50 W12G23    30.23S WCI  18
$$
MNZ001>005-007-008-013>017-022>024-027-028-012300-
   Northwest Minnesota

CITY           SKY/WX    TMP DP  RH WIND       PRES   REMARKS
BEMIDJI        FLURRIES  16   8  71 W15       30.16R WCI   1
HALLOCK        SUNNY     19  10  68 NW10      30.23R WCI   8
ROSEAU         SUNNY     19  10  68 W12       30.16R WCI   7
WARROAD        MOSUNNY   19   9  63 NW12      30.15R WCI   7
THIEF RVR FALL PTSUNNY   16   9  73 W13       30.21R WCI   2
CROOKSTON      LGT SNOW  18  14  86 NW10      30.26R WCI   6
FOSSTON        LGT SNOW  18  10  73 NW9       30.21R WCI   6
DETROIT LAKES  LGT SNOW  19  16  86 NW13      30.22R WCI   7
MOORHEAD       LGT RAIN  21  16  79 NW14      30.26R WCI   8
PARK RAPIDS    CLOUDY    19  10  68 W16       30.17R WCI   4
MAHNOMEN       FLURRIES  17  11  78 NW9       30.21R WCI   6
$$
MNZ006-009>011-018-025>026-012300-
   North Central Minnesota

CITY           SKY/WX    TMP DP  RH WIND       PRES   REMARKS
BAUDETTE       CLOUDY    18   7  62 W15       30.11R WCI   4
FLAG ISLAND    SUNNY     16   1  53 NW18      30.12R WCI  -1
INTL FALLS     PTSUNNY   19   4  51 W12G21    30.09R WCI   7
WASKISH        PTSUNNY   16  10  79 SW14      30.15R WCI   1
BIG FORK       SUNNY     21   7  53 NW6       30.11R WCI  14
LONGVILLE      CLOUDY    21   9  58 NW12      30.15R WCI   9
GRAND RAPIDS   CLOUDY    21  10  63 NW14      30.10R WCI   8
CRANE LAKE     PTSUNNY   19   1  45 W9        30.10R WCI   9
ORR            CLOUDY    19   1  45 NW12      30.05S WCI   7
COOK           SUNNY     19   5  53 W13       30.08R WCI   7
WALKER         CLOUDY    20   8  59 NW10G21   30.15R WCI   8
$$
MNZ012-019>021-037-012300-
   Northeast Minnesota

CITY           SKY/WX    TMP DP  RH WIND       PRES   REMARKS
DULUTH         MOSUNNY   23   7  50 W15G24    30.07R WCI  10
ELY            PTSUNNY   21   3  45 W12G21    30.03R WCI   9
HIBBING        CLOUDY    21   8  57 W12G24    30.08R WCI   9
EVELETH        MOSUNNY   23  10  58 W13G20    30.08R WCI  11
DULUTH HARBOR  PTSUNNY   27  10  50 W15       30.14R WCI  15
SILVER BAY     SUNNY     27   5  39 W7G20     30.03S WCI  19
GRAND MARAIS     N/A     28   8  43 W14G24    30.02R WCI  17
G MARAIS ARPRT SUNNY     21  -2  35 W9G16     29.95R WCI  11
$$
MNZ029>031-032-039>041-046>048-054>057-064-012300-
   West Central Minnesota

CITY           SKY/WX    TMP DP  RH WIND       PRES   REMARKS
FERGUS FALLS   FLURRIES  21  12  68 NW21      30.27R WCI   6
MORRIS         PTSUNNY   25  16  68 NW20      30.24R WCI  11
ALEXANDRIA     LGT SNOW  22  16  78 W16       30.20S WCI   8
ELBOW LAKE     FLURRIES  23  15  74 NW15G23   30.23R WCI  10
WADENA         FLURRIES  19  10  68 W14G23    30.19R WCI   6
APPLETON       CLOUDY    28  16  59 NW20G26   30.27R WCI  15
BENSON         FLURRIES  27  16  63 NW21G26   30.25R WCI  13
ORTONVILLE     CLOUDY    25  14  63 NW17G26   30.27R WCI  11
MADISON        CLOUDY    28  16  59 NW21G30   30.27R WCI  15
WILLMAR        FAIR      28  14  54 W18G26    30.25R WCI  16
$$
MNZ033>034-036-042>043-049>051-058-059-012300-
   Central Minnesota

CITY           SKY/WX    TMP DP  RH WIND       PRES   REMARKS
ST CLOUD       MOSUNNY   26   8  46 W20       30.21R WCI  12
SAUK CENTRE    MOCLDY    25  12  59 W17G25    30.21R WCI  11
PAYNESVILLE    PTSUNNY   24  10  55 SW17G23   30.22R WCI  10
PINE RIVER     CLOUDY    21  10  63 W8G22     30.19R WCI  12
BRAINERD       CLOUDY    21  11  65 W15G24    30.17R WCI   8
STAPLES        FLURRIES  21  12  68 W15       30.19R WCI   8
LONG PRAIRIE   CLOUDY    25  12  58 SW15G22   30.20R WCI  12
LITTLE FALLS   PTSUNNY   27  10  50 W15G21    30.20R WCI  15
LITCHFIELD     CLOUDY    28  16  59 W14       30.23S WCI  17
MAPLE LAKE     CLOUDY    29  14  52 W15       30.22S WCI  18
$$
MNZ037-044-045-052-053-012300-
   East Central Minnesota

CITY           SKY/WX    TMP DP  RH WIND       PRES   REMARKS
PRINCETON      PTSUNNY   27  10  50 W10G17    30.20R WCI  17
MORA           MOSUNNY   27  10  50 W10G17    30.20R WCI  17
RUSH CITY      CLOUDY    25   9  52 W9G18     30.20R WCI  15
MOOSE LAKE     MOSUNNY   27   9  46 W8        30.12S WCI  18
HINCKLEY       MOCLDY    27  10  50 W13G20    30.17S WCI  16
CLOQUET        PTSUNNY   21   5  49 W12G21    30.10R WCI   9
MCGREGOR       MOSUNNY   27  10  50 W16G23    30.14R WCI  14
$$
MNZ071>073-080-081-089-090-097-098-012300-
   Southwest Minnesota

CITY           SKY/WX    TMP DP  RH WIND       PRES   REMARKS
MONTEVIDEO     CLOUDY    32  18  55 NW12      30.26S WCI  23
GRANITE FALLS  CLOUDY    29  19  66 W22       30.28R WCI  15
CANBY          CLOUDY    28  19  68 W20G29    30.29R WCI  15
MARSHALL       PTSUNNY   28  12  50 NW24      30.28R WCI  14
REDWOOD FALLS  CLOUDY    30  14  51 NW20G31   30.25S WCI  17
OLIVIA         MOSUNNY   28  18  64 W18       30.24S WCI  16
PIPESTONE      CLOUDY    28  16  59 NW21G28   30.25S WCI  15
WINDOM         MOSUNNY   28  16  59 W23G31    30.26S WCI  14
WORTHINGTON    SUNNY     34  12  40 W17G28    30.29R WCI  23
JACKSON        SUNNY     30  12  47 W21       30.27S WCI  17
TRACY          MOSUNNY   30  16  55 W15G26    30.26S WCI  19
SLAYTON        MOSUNNY   29  12  50 W22G28    30.26S WCI  15
$$
MNZ065>067-074>077-082>085-091>093-012300-
   South Central Minnesota

CITY           SKY/WX    TMP DP  RH WIND       PRES   REMARKS
MANKATO        CLOUDY    28  10  47 W18G24    30.26S WCI  16
NEW ULM        CLOUDY    28  14  54 W16G26    30.26R WCI  17
ST JAMES       SUNNY     30  16  55 W15       30.28S WCI  19
FAIRMONT       SUNNY     28  12  50 W14       30.26F WCI  17
GLENCOE        CLOUDY    28  17  62 W13G24    30.24S WCI  18
FARIBAULT      CLOUDY    27  12  54 W13       30.25F WCI  16
OWATONNA       MOSUNNY   25  12  58 W12       30.25S WCI  14
ALBERT LEA     SUNNY     27  12  54 W10G17    30.26S WCI  17
$$
MNZ078>079-086>088-094>096-012300-
   Southeast Minnesota

CITY           SKY/WX    TMP DP  RH WIND       PRES   REMARKS
ROCHESTER      SUNNY     21  10  62 W17       30.24S WCI   7
RED WING       MOSUNNY   27   9  46 W14G29    30.24S WCI  15
STANTON        MOSUNNY   27  12  52 W13G22    30.24S WCI  16
DODGE CENTER   SUNNY     23  12  63 W16       30.24S WCI  10
WINONA         SUNNY     28  10  47 NW13G20   30.27S WCI  18
AUSTIN         SUNNY     23  10  58 W13G21    30.26S WCI  11
PRESTON        SUNNY     20   9  63 W15       30.26S WCI   6
$$
ABBREVIATIONS USED IN REMARKS
   TC - TEMPERATURES IN CELSIUS
  WCI - WIND CHILL INDEX
   HX - HEAT INDEX
  VSB - VISIBILITY
$$



USA.gov is the U.S. government's official web portal to all federal, state and local government web resources and services.